Regional Weather Roundup
Issued by NWS

Home | Current Version | Previous Version | Text Only | Print | Product List | Glossary On
Versions: 1 2 3 4 5 6 7 8 9 10 11 12 13 14 15 16 17 18 19 20 21 22 23 24 25 26 27 28 29 30 31 32 33 34 35 36 37 38 39 40 41 42 43 44 45 46 47 48 49 50
000
ASUS46 KPQR 100910
RWROR

OREGON REGIONAL WEATHER ROUNDUP
NATIONAL WEATHER SERVICE PORTLAND OR
100 AM PST SAT DEC 10 2016

NOTE: "FAIR" INDICATES FEW OR NO CLOUDS BELOW 12,000 FEET WITH
NO SIGNIFICANT WEATHER AND/OR OBSTRUCTIONS TO VISIBILITY.

ORZ001>013-101000-
NORTHWEST OREGON


CITY           SKY/WX    TMP DP  RH WIND       PRES   REMARKS
ASTORIA        MOCLDY    41  37  86 NE5       29.85R
NEWPORT        MOCLDY    46  45  93 W12       29.92S
PORTLAND       LGT RAIN  33  31  92 SE7       29.92R WCI  27
VANCOUVER WA   LGT RAIN  34  32  92 CALM      29.90F
SCAPPOOSE      CLOUDY    33  31  92 S3        29.90F
HILLSBORO      CLOUDY    34  33  96 S3        29.88R
AURORA         LGT RAIN  38  38 100 N5        29.89R FOG     WCI  34
MCMINNVILLE    LGT RAIN  36  34  92 NW3       29.89R FOG
SALEM          LGT RAIN  47  43  86 SW8       29.87S
CORVALLIS        N/A     48  45  87 CALM      29.88F
EUGENE         CLOUDY    46  44  93 S9        29.89F
$$

ORZ021-028-101000-
SOUTHWEST OREGON


CITY           SKY/WX    TMP DP  RH WIND       PRES   REMARKS
NORTH BEND     CLOUDY    50  48  93 W7        29.95R
BROOKINGS      RAIN      48  48 100 CALM      29.95S
ROSEBURG       LGT RAIN  47  46  97 S3        29.92F
SEXTON SUMMIT  LGT RAIN  37  37 100 VRB3      29.87F FOG
MEDFORD        LGT RAIN  45  45 100 CALM      29.93F
$$

ORZ014>016-041-101000-
COLUMBIA GORGE


CITY           SKY/WX    TMP DP  RH WIND       PRES   REMARKS
TROUTDALE      FRZ RAIN  32  29  88 E18G24    29.91F WCI  20
THE DALLES     LGT SNOW  26  24  92 CALM      30.00F FOG
$$

ORZ029>031-041-044-049-050-061>064-502-503-505>511-101000-
EASTERN OREGON


CITY           SKY/WX    TMP DP  RH WIND       PRES   REMARKS
REDMOND        MOCLDY    39  32  76 S12       29.80F WCI  32
BEND           CLOUDY    39  34  81 SW18G24   29.81S WCI  30
PRINEVILLE     MOCLDY    41  34  75 S14       29.81F
KLAMATH FALLS  LGT RAIN  36  36 100 CALM      29.90F VSB 3/4
LAKEVIEW       CLOUDY    37  34  87 S10       29.93F WCI  30
HERMISTON      CLOUDY    24  22  91 W5        29.95F FOG     WCI  18
PENDLETON      CLOUDY    22  19  89 NW5       29.87F WCI  16
JOHN DAY       DRIZZLE   37  36  95 E3        29.83F
MEACHAM        MIX PCPN  32  28  85 CALM      29.78F
LA GRANDE      CLOUDY    34  23  64 S17       29.84F WCI  23
BAKER CITY     CLOUDY    25  24  96 CALM      29.88F FOG
BURNS          LGT RAIN  33  32  96 N3        29.88F
ROME             N/A     42  40  92 SW3       29.88F
ONTARIO        FRZ RAIN  31  28  89 CALM      29.98F FOG
$$



USA.gov is the U.S. government's official web portal to all federal, state and local government web resources and services.